This is the latest recevied weather packets stored in our database for station/object N4YH-13. If no packets are shown the sender has not sent any weather packets the latest 10 day(s).
| Time | Temp. | Humidity | Pressure | Rain* | Wind** | Luminosity | Snow |
|---|---|---|---|---|---|---|---|
| 1777830483 | 14.44° C | 58% | 1018 hPa | 0 mm | - | - | - |
| 1777830364 | 14.44° C | 58% | 1018.2 hPa | 0 mm | - | - | - |
| 1777830244 | 14.44° C | 62% | 1018.2 hPa | 0 mm | - | - | - |
| 1777830124 | 14.44° C | 57% | 1018.2 hPa | 0 mm | - | - | - |
| 1777830003 | 14.44° C | 59% | 1018.2 hPa | 0 mm | - | - | - |
| 1777829883 | 14.44° C | 58% | 1018.2 hPa | 0 mm | - | - | - |
| 1777829763 | 14.44° C | 57% | 1018.2 hPa | 0 mm | - | - | - |
| 1777829643 | 14.44° C | 57% | 1018.2 hPa | 0 mm | - | - | - |
| 1777829524 | 14.44° C | 59% | 1018.4 hPa | 0 mm | - | - | - |
| 1777829404 | 14.44° C | 59% | 1018.4 hPa | 0 mm | - | - | - |
| 1777829284 | 14.44° C | 57% | 1018.4 hPa | 0 mm | - | - | - |
| 1777829163 | 14.44° C | 55% | 1018.4 hPa | 0 mm | - | - | - |
| 1777829043 | 15° C | 54% | 1018.4 hPa | 0 mm | - | - | - |
| 1777828923 | 15° C | 56% | 1018.4 hPa | 0 mm | - | - | - |
| 1777828804 | 15° C | 56% | 1018.4 hPa | 0 mm | - | - | - |
| 1777828684 | 15° C | 56% | 1018.4 hPa | 0 mm | - | - | - |
| 1777828563 | 15° C | 55% | 1018.8 hPa | 0 mm | - | - | - |
| 1777828443 | 15° C | 55% | 1018.8 hPa | 0 mm | - | - | - |
| 1777828323 | 14.44° C | 55% | 1018.8 hPa | 0 mm | - | - | - |
| 1777828203 | 14.44° C | 57% | 1018.8 hPa | 0 mm | - | - | - |
| 1777828083 | 14.44° C | 61% | 1018.7 hPa | 0 mm | - | - | - |
| 1777827964 | 13.89° C | 61% | 1018.7 hPa | 0 mm | - | - | - |
| 1777827844 | 13.33° C | 59% | 1018.7 hPa | 0 mm | - | - | - |
| 1777827723 | 13.33° C | 60% | 1018.8 hPa | 0 mm | - | - | - |
| 1777827603 | 13.33° C | 60% | 1018.8 hPa | 0 mm | - | - | - |
* Rain latest hour (hover to see other rain measurements)
** Current wind speed in m/s (hover to see current wind gust speed)